Find STARLINK-37667

NORAD ID: 70633 Constellation: starlink operational
LEOCIRCULARRETROGRADE

Live Position

Loading 3D Globe...

About STARLINK-37667

Description loading...

Upcoming Passes

Passes for default location (London). Set your location on the main map for personalized predictions.

Altitude History

Loading altitude history...

Two-Line Element Set

1 70633C 26101W 26126.33798611 .00335000 00000+0 52300-3 0 1269
2 70633 97.2845 339.8810 0010196 257.1000 141.1775 16.03774422 13
Epoch: May 6, 2026 • Age: 17 hours